Theta_e
297 296 296 296 295 294 292 291 291 290 290 290 290 290 290 290 290 290 290 290 289 289 289 289 288 288 288 288 288 287 287 287 287 287 287 287 287 287 287 288 288 288 289 289 289 289 289 289 289 289 289 289 290 290 290 291 291 291 291 292 292 292 292 292 293 293 293 293 293 293 293 293 292 292 292 292 292 292 293 293 293 294 294 294 294 295
295 295 294 294 293 292 291 290 290 290 290 290 290 290 290 290 290 290 289 289 289 289 288 288 288 288 287 287 287 287 287 287 287 287 287 287 287 287 287 287 288 288 288 288 288 288 288 288 288 288 288 288 289 289 289 290 290 290 290 291 291 291 291 292 292 292 292 292 292 292 292 291 291 291 292 292 292 292 293 293 293 293 294 294 294 294
292 293 292 292 292 291 290 290 290 290 290 290 289 289 289 289 289 289 289 289 288 288 288 288 287 287 287 287 287 287 287 287 287 287 287 287 287 287 287 287 287 287 287 287 287 287 287 287 287 287 288 288 288 289 289 289 289 289 290 290 290 290 291 291 291 291 291 291 291 291 291 291 291 291 291 291 292 292 292 293 293 293 293 294 294 294
291 291 291 291 291 290 290 290 290 290 290 290 290 290 289 289 289 288 288 288 288 288 287 287 287 287 287 287 287 287 287 287 287 287 287 286 286 286 286 286 286 286 286 286 286 286 286 286 287 287 288 288 288 288 288 288 289 289 289 289 290 290 290 290 290 290 290 290 290 290 290 290 290 291 291 291 291 292 292 292 292 293 293 293 294 294
291 291 291 290 290 290 290 290 290 290 290 290 290 289 289 289 288 288 288 288 287 287 287 287 287 287 287 287 287 287 287 287 287 287 287 286 286 286 286 286 286 285 285 285 285 285 286 286 286 287 287 287 288 288 288 288 288 288 289 289 289 289 289 289 289 289 289 289 289 289 290 290 290 290 291 291 291 291 291 292 292 292 293 293 293 294
291 291 291 291 290 290 290 290 290 290 289 289 289 288 288 288 288 287 287 287 287 287 286 286 286 286 286 286 286 286 287 287 287 287 286 286 286 286 286 286 286 286 286 286 285 285 285 286 286 286 287 287 287 287 287 287 288 288 288 288 288 288 288 288 288 288 288 288 289 289 289 290 290 290 290 290 291 291 291 291 292 292 292 292 293 293
291 291 291 291 290 290 289 289 289 289 288 288 287 287 287 287 287 287 286 286 286 286 286 286 286 286 287 286 286 286 287 287 287 286 286 286 286 286 286 286 286 286 286 285 285 285 285 285 285 286 286 286 286 286 287 287 287 287 287 287 287 287 287 287 287 287 287 288 288 289 289 289 290 290 290 290 290 290 291 291 291 292 292 292 292 293
290 290 291 290 290 289 289 288 288 288 288 287 287 287 287 287 286 286 286 286 286 286 286 286 287 287 287 287 287 286 286 287 286 286 286 286 286 286 286 286 286 285 285 285 285 284 284 284 284 284 285 285 285 286 286 286 286 286 286 286 285 285 285 286 286 287 287 288 288 289 289 289 289 290 290 290 290 290 290 291 291 291 291 292 292 292
290 290 289 289 289 288 288 288 288 287 287 287 287 287 286 286 286 286 286 286 286 286 286 287 287 287 287 287 287 286 286 286 286 286 286 286 286 286 286 286 286 285 285 285 284 284 284 284 284 284 284 284 284 285 285 285 285 284 284 284 284 284 285 285 286 287 287 288 288 289 289 289 289 289 290 290 290 290 290 290 290 291 291 291 291 292
291 290 289 288 288 288 287 287 287 287 287 286 286 286 286 285 285 286 286 286 286 286 286 287 287 287 287 287 287 286 286 286 286 286 286 286 286 285 285 285 285 285 285 285 284 284 284 284 284 284 284 284 284 284 284 284 283 283 283 283 284 284 285 286 286 287 287 288 288 288 289 289 289 289 290 290 290 290 290 290 290 290 290 290 291 291
289 289 288 288 287 287 287 286 286 286 286 286 285 285 285 285 285 285 285 286 286 286 286 286 286 286 286 287 286 286 286 286 285 285 286 286 286 285 285 285 285 285 285 284 284 284 284 284 284 284 284 283 283 283 283 283 283 283 283 284 284 285 285 286 287 287 287 288 288 288 288 289 289 289 289 289 290 290 290 290 290 290 290 290 290 290
288 288 287 287 286 286 286 285 285 285 285 285 285 285 285 285 285 285 285 285 285 286 286 286 286 286 286 286 285 285 285 285 285 285 286 286 286 286 285 285 285 285 285 285 284 284 284 284 284 284 284 284 283 283 283 283 283 283 284 284 285 285 286 286 287 287 287 287 288 288 288 288 289 289 289 289 289 289 289 289 289 289 289 289 290 290
288 287 287 286 286 285 285 285 285 285 285 285 285 285 284 284 285 285 284 284 284 285 285 285 285 286 286 285 285 285 285 285 285 285 285 285 285 285 285 285 285 285 285 285 284 284 284 284 284 284 284 284 284 284 283 283 283 283 284 284 285 286 286 286 286 287 287 287 287 288 288 288 288 288 289 289 289 289 289 289 289 289 289 289 289 289
287 286 286 285 285 285 285 285 285 284 284 285 285 284 284 284 285 284 284 284 284 284 284 284 284 285 285 285 285 284 284 284 284 285 285 285 285 285 284 284 284 284 284 284 284 284 284 284 284 284 284 284 284 284 283 283 283 283 284 285 285 286 286 286 286 287 287 287 287 287 288 288 288 288 288 288 288 288 288 288 288 288 288 288 288 288
285 285 285 284 284 284 284 284 284 284 284 284 284 284 284 284 284 284 283 283 283 284 284 284 284 285 285 285 285 284 284 283 283 284 284 284 285 284 284 283 283 284 284 283 283 284 284 284 283 283 283 284 284 283 283 283 283 283 284 285 285 285 286 286 286 286 287 287 287 287 287 287 288 288 288 288 288 288 288 288 288 288 288 288 288 288
285 285 284 284 284 284 284 284 284 284 284 284 284 284 284 284 283 283 283 283 283 283 283 283 284 284 285 285 285 284 284 283 283 283 283 283 284 284 283 283 282 283 283 283 283 283 283 283 283 283 283 283 283 282 282 282 283 283 284 285 285 285 286 286 286 286 286 287 287 287 287 287 287 287 287 287 287 287 287 287 287 287 288 288 288 288
285 285 284 284 284 284 284 284 284 284 284 284 284 284 283 283 283 283 283 283 283 283 283 283 283 283 283 284 285 284 284 283 283 282 282 282 283 284 283 282 282 282 283 283 283 283 283 283 283 283 283 282 282 282 282 282 283 283 284 285 285 285 286 286 286 286 286 286 286 287 287 287 287 287 287 287 287 287 287 287 287 287 287 287 287 287
284 284 284 284 284 284 284 284 284 284 284 284 284 284 284 284 283 283 283 283 283 283 283 283 283 283 283 283 284 284 284 283 283 282 282 282 283 283 283 282 282 282 282 282 283 283 283 283 283 282 282 282 282 282 282 282 283 284 284 285 285 285 285 286 286 286 286 286 286 286 286 286 286 286 286 286 286 287 287 287 287 287 287 287 287 287
284 285 284 284 284 284 284 284 284 284 284 284 284 284 284 284 284 283 283 283 283 283 283 283 283 283 283 283 284 284 283 283 282 282 281 282 282 282 283 282 282 282 282 282 282 282 282 282 282 282 282 282 282 282 282 283 283 284 284 284 284 285 285 285 285 286 286 286 286 286 286 286 286 286 286 286 286 286 286 286 286 286 287 287 287 287
284 284 284 284 284 284 284 284 284 284 284 284 284 284 284 284 283 283 283 283 283 283 283 283 283 283 283 283 283 283 283 282 282 281 281 281 282 282 282 282 282 281 281 282 282 282 282 282 282 282 282 282 282 282 282 283 283 283 284 284 284 284 285 285 285 285 285 285 285 286 286 286 286 286 286 286 286 286 286 286 286 286 286 287 287 287
284 284 284 284 284 284 284 284 284 284 284 284 284 284 284 284 283 283 283 283 283 283 283 283 284 283 283 283 283 283 283 282 281 281 281 281 282 282 282 282 281 281 281 281 282 282 282 282 282 282 282 282 282 282 282 283 283 283 283 284 284 284 285 285 285 285 285 285 285 285 285 285 285 285 286 286 286 286 286 286 286 286 286 286 286 287
284 284 284 284 284 284 284 284 284 284 284 284 284 284 284 284 283 283 283 283 283 283 283 283 283 283 283 282 282 282 282 282 281 281 281 281 281 282 282 281 281 281 281 281 281 281 281 281 282 282 282 282 282 282 282 283 283 283 283 283 284 284 284 284 285 285 285 285 285 285 285 285 285 285 285 285 286 286 286 286 286 286 286 286 286 286
284 284 284 284 284 284 284 284 284 284 284 284 284 284 284 284 283 283 283 283 283 283 283 283 282 282 282 282 282 282 282 281 281 281 281 281 281 282 281 281 281 280 281 281 281 281 281 281 282 282 282 282 282 282 282 282 283 283 283 283 284 284 284 284 284 284 284 285 285 285 285 285 285 285 285 285 285 286 286 286 286 286 286 286 286 286
284 284 284 284 284 284 284 284 284 284 284 284 284 284 284 284 283 283 283 283 283 282 282 282 282 282 282 282 281 281 281 281 281 280 280 281 281 281 281 281 280 280 281 281 281 281 281 281 282 282 282 282 282 282 282 282 282 282 283 283 283 284 284 284 284 284 284 284 284 284 285 285 285 285 285 285 285 285 285 285 286 286 286 286 286 286
284 284 284 284 284 284 284 284 284 284 284 284 284 284 284 284 284 283 283 283 282 282 282 281 281 281 281 281 281 281 281 281 280 280 280 280 281 280 280 280 280 280 280 281 281 281 281 281 282 282 282 282 282 282 282 282 282 282 282 283 283 283 283 284 284 284 284 284 284 284 284 284 285 285 285 285 285 285 285 285 285 285 286 285 286 286
284 284 284 284 284 284 284 284 284 284 284 284 284 284 283 283 283 283 282 282 282 281 281 281 280 280 280 280 280 281 281 281 280 280 280 280 280 280 280 280 280 280 280 281 281 281 281 281 282 282 282 282 282 282 282 282 282 282 282 282 283 283 283 283 283 283 284 284 284 284 284 284 284 285 285 285 285 285 285 285 285 285 285 285 285 285
283 283 283 283 283 283 283 283 283 283 284 284 284 284 283 283 282 282 281 281 281 280 280 280 279 279 280 280 280 280 281 281 280 280 280 280 280 280 280 280 280 280 280 281 281 281 281 281 282 282 282 282 282 282 282 282 282 282 282 282 282 283 283 283 283 283 283 283 284 284 284 284 284 284 285 285 285 285 285 285 285 285 285 285 285 285
283 283 283 283 283 283 283 283 282 282 283 283 283 283 282 282 281 281 281 280 280 280 279 279 279 279 279 279 279 280 281 281 281 280 280 280 280 280 280 281 281 281 281 281 281 281 281 281 282 282 282 282 282 282 282 282 282 282 282 282 282 282 282 282 283 283 283 283 283 284 284 284 284 284 284 284 285 285 285 285 285 285 285 285 285 284
283 283 283 282 282 282 282 282 282 281 282 282 282 282 281 281 281 280 280 280 280 280 279 279 279 279 279 279 279 280 281 281 281 280 280 280 280 280 281 281 281 281 281 281 281 281 281 282 282 282 282 282 282 282 282 282 282 282 282 282 282 282 282 282 282 283 283 283 283 283 284 284 284 284 284 284 284 284 284 285 285 285 285 284 284 284
282 282 282 282 282 281 281 281 281 281 281 281 281 281 281 280 280 280 280 280 280 280 280 279 279 279 279 279 279 280 280 281 281 281 280 280 280 281 281 281 281 281 281 281 281 281 282 282 282 282 282 282 282 282 282 282 282 282 282 282 282 282 282 282 282 282 283 283 283 283 283 283 284 284 284 284 284 284 284 284 284 284 284 284 284 284
282 281 281 281 281 281 281 280 280 280 280 280 280 280 280 280 280 280 280 280 280 280 280 280 280 279 279 279 279 279 279 281 282 281 280 280 280 281 281 281 281 281 281 281 281 281 282 282 282 282 282 282 282 282 282 282 282 282 282 282 282 282 282 282 282 282 282 283 283 283 283 283 283 283 283 283 284 284 284 284 284 284 284 284 284 284
281 281 281 280 280 280 280 280 280 280 280 280 280 280 280 280 280 280 280 280 280 280 280 280 280 280 279 279 280 280 280 281 281 281 281 280 280 281 281 281 281 281 281 281 281 281 281 282 282 282 282 282 282 282 282 282 282 282 283 282 282 282 282 282 282 282 282 282 282 283 283 283 283 283 283 283 283 283 284 284 284 284 284 284 284 284
280 280 280 280 280 280 280 280 280 280 280 280 280 280 281 281 281 281 281 281 280 280 280 280 280 280 280 279 280 280 280 281 281 281 281 280 280 281 281 281 281 281 281 281 281 281 281 281 282 282 282 282 282 282 282 282 283 283 283 283 283 283 282 282 282 282 282 282 282 282 283 282 282 283 283 283 283 283 283 284 284 284 284 285 284 284
280 280 280 280 280 280 280 280 280 280 280 280 281 281 281 281 281 281 281 281 281 281 281 281 280 280 280 280 280 280 280 281 281 282 281 281 280 281 281 281 281 281 281 281 281 281 281 282 282 282 282 282 282 282 283 283 283 283 283 283 283 282 282 282 282 282 282 282 282 282 282 282 282 282 283 283 283 283 283 284 284 284 284 284 284 284
280 280 280 280 280 280 280 280 280 280 281 281 281 281 281 281 281 281 281 281 281 281 281 281 281 281 280 280 280 280 280 281 282 282 281 281 281 281 281 281 281 281 281 281 281 282 282 282 282 282 282 282 282 283 283 283 283 283 283 283 283 283 283 283 283 283 283 283 283 282 282 282 283 283 283 283 283 283 283 284 284 284 284 284 284 284
280 280 280 280 280 280 280 280 281 281 281 281 281 281 281 281 282 282 282 282 282 281 281 281 281 281 281 281 280 280 281 282 282 282 282 281 281 281 280 281 281 281 281 281 281 282 282 282 282 282 282 282 283 283 283 283 283 283 283 283 283 283 283 283 283 283 283 283 283 283 283 283 283 283 283 283 283 283 283 283 283 283 283 283 284 284
280 280 281 280 280 280 280 281 281 281 281 281 281 281 282 282 282 282 282 282 282 282 282 282 282 282 282 281 281 281 281 282 282 282 282 282 282 281 281 281 281 281 281 281 281 282 282 282 282 282 282 282 283 283 283 283 283 283 283 283 283 283 283 283 283 283 283 283 283 283 283 283 283 283 283 283 283 283 283 283 283 283 283 283 283 283
281 281 281 281 280 280 281 281 281 281 281 281 281 282 282 282 282 282 282 282 282 282 282 282 282 282 282 282 282 282 282 282 282 283 282 282 282 282 281 281 281 282 282 282 282 282 282 282 282 282 282 282 283 283 283 283 283 283 283 283 283 283 283 283 283 283 283 283 283 283 283 283 283 283 283 283 283 283 283 283 283 283 283 283 283 283
281 281 281 281 281 281 281 281 281 281 281 281 281 282 282 282 282 282 282 282 282 282 282 282 282 282 282 282 282 282 282 282 283 283 283 283 283 283 282 282 282 282 282 282 282 281 282 282 282 282 282 283 283 283 283 283 283 283 283 283 283 283 283 283 283 283 283 283 283 283 283 283 283 283 283 283 283 283 283 283 283 283 283 283 283 283
281 281 281 281 281 281 281 281 281 281 281 281 281 282 282 282 282 282 282 282 282 282 282 282 282 282 282 282 282 282 282 283 283 283 283 283 283 283 283 283 282 282 282 282 282 282 282 282 282 282 282 283 283 283 283 283 283 283 283 283 283 283 283 283 283 283 283 283 283 283 283 283 283 283 283 283 283 283 283 283 283 283 283 283 283 283
280 281 281 281 281 281 281 281 281 281 281 281 282 282 282 282 282 282 282 282 282 282 282 282 282 282 282 282 282 282 282 283 283 283 283 283 283 283 283 283 283 283 283 282 282 282 282 282 282 282 283 283 283 283 283 283 283 283 283 283 283 283 283 283 283 283 283 283 283 283 283 283 283 283 283 283 283 283 283 283 283 283 283 283 283 283
280 280 281 281 281 281 281 281 281 281 281 282 282 282 282 282 282 282 282 282 282 282 282 281 281 281 281 282 282 282 283 283 283 283 283 283 283 284 284 284 284 283 283 283 282 282 282 282 283 283 283 283 283 283 283 283 283 283 283 283 283 283 283 283 283 283 283 283 283 283 283 283 283 283 283 283 283 283 283 283 283 283 283 283 283 283
280 280 280 281 281 281 281 281 281 282 282 282 282 282 282 282 282 282 282 281 281 281 281 281 281 281 281 281 282 282 282 283 283 283 283 283 283 284 284 284 284 284 283 283 283 283 283 283 283 283 283 283 283 283 283 283 283 283 283 283 283 283 283 283 283 283 283 283 283 283 283 283 283 283 283 283 283 283 283 283 283 283 283 283 283 283
280 280 280 281 281 281 281 281 282 282 282 282 282 282 282 282 282 282 282 281 281 281 281 281 281 281 281 282 282 282 282 283 283 283 283 283 284 284 284 284 284 284 284 283 283 283 283 283 283 283 283 283 283 283 283 283 283 283 283 283 283 283 283 283 283 283 283 283 283 283 283 283 283 283 283 283 283 283 283 283 283 283 283 283 283 283
280 280 280 281 281 281 281 282 282 282 282 282 282 282 282 282 282 282 282 281 281 281 281 281 281 282 282 282 282 282 282 282 283 283 283 283 283 284 284 284 284 284 284 284 284 283 283 283 283 284 284 283 283 283 283 283 283 283 283 283 283 283 283 283 283 283 283 283 283 283 283 283 283 283 282 283 283 283 283 283 283 283 283 283 283 283
280 280 280 281 281 281 281 281 281 282 282 283 283 282 282 282 282 281 281 281 282 282 282 282 282 282 282 282 282 282 282 282 283 283 283 283 283 284 284 284 284 284 284 284 284 284 284 284 284 284 284 284 284 284 283 283 283 283 283 283 283 283 283 283 283 283 283 283 283 283 283 282 282 282 283 283 283 283 283 283 283 283 283 283 283 283
280 280 280 280 280 280 281 281 281 282 282 283 283 282 282 281 281 281 281 281 281 282 282 282 282 282 282 282 282 282 282 283 283 283 283 283 283 283 284 284 284 284 284 284 284 284 284 284 284 284 284 284 283 283 283 283 283 283 283 283 283 283 283 283 283 283 283 282 282 282 282 282 282 282 283 283 283 283 283 283 283 283 283 283 283 283
279 279 279 279 279 280 280 280 281 281 281 282 282 282 281 281 281 281 281 281 281 281 281 282 282 282 282 282 282 282 283 283 283 283 283 283 283 283 284 284 284 284 284 284 284 284 284 283 284 283 283 283 283 283 283 283 283 283 283 283 283 282 282 282 282 282 282 282 283 283 283 283 282 283 283 283 283 283 283 283 283 283 283 283 283 283
279 278 278 278 278 278 279 279 280 280 280 280 281 281 281 281 280 280 280 281 281 281 281 282 282 282 282 282 282 283 283 283 283 283 283 283 283 283 284 284 284 284 284 283 283 283 283 283 283 283 283 283 283 283 283 283 283 283 283 283 282 282 282 282 282 282 282 283 283 283 283 283 283 283 283 283 283 283 283 283 283 283 283 283 283 283
278 278 278 278 277 277 278 278 279 279 279 279 279 280 280 280 280 280 280 280 281 281 281 281 282 282 282 282 282 283 283 283 283 283 283 283 283 283 284 284 284 284 283 283 283 283 283 283 283 283 283 283 283 283 283 283 283 283 283 282 282 282 282 282 282 283 283 283 283 283 282 282 282 282 283 283 283 283 283 283 283 283 283 283 283 283
278 278 278 277 277 277 277 278 278 279 279 279 279 279 279 279 279 279 280 280 280 281 281 281 281 282 282 282 282 283 283 283 283 283 283 283 283 283 284 284 284 283 283 283 283 283 283 283 283 283 283 283 283 283 283 283 283 283 282 282 282 282 282 283 283 283 283 282 282 282 282 282 282 283 283 283 283 283 283 283 283 283 283 283 283 283
Wind_Speed
18 18 17 16 16 15 13 11 10 9 8 7 6 6 6 6 7 7 8 9 9 10 11 12 12 13 13 14 14 14 15 15 15 16 16 16 15 15 14 14 13 13 13 14 14 15 16 16 16 16 16 16 16 16 16 17 17 17 17 17 17 17 17 17 17 17 17 17 17 17 17 17 17 18 18 18 18 19 19 19 20 20 20 21 21 22
18 19 18 17 16 15 14 12 10 9 7 6 6 6 6 7 7 8 9 10 10 11 11 12 13 14 14 15 15 15 15 16 16 16 16 16 15 14 14 14 14 14 14 15 16 16 17 17 17 17 17 17 17 17 17 17 17 17 16 16 16 16 16 16 16 16 16 16 17 17 17 17 18 18 18 18 19 19 19 20 20 20 21 21 22 22
18 18 17 16 15 15 14 12 10 9 7 6 6 7 7 8 8 9 9 10 10 11 12 13 13 14 15 15 16 16 16 16 16 17 16 16 15 14 14 14 14 15 15 16 17 17 18 18 18 18 17 17 17 17 17 16 16 16 16 16 16 16 16 16 16 16 16 17 17 17 18 18 18 18 18 19 19 19 19 20 20 21 21 22 22 23
18 17 16 15 15 14 13 12 10 9 8 7 8 8 9 9 9 9 10 10 11 12 12 13 14 14 15 16 16 17 17 17 17 17 16 15 15 14 14 14 15 15 16 17 18 18 18 18 18 17 17 17 16 16 16 16 16 15 15 15 15 16 16 16 16 16 17 17 17 18 18 18 18 18 19 19 19 19 20 20 21 21 22 22 22 23
16 15 15 14 13 12 11 10 9 8 8 8 9 9 10 10 10 10 11 11 11 12 12 13 14 14 15 16 17 17 17 17 16 16 16 15 14 14 14 14 15 16 17 18 18 18 18 17 17 17 16 16 16 16 15 15 15 15 15 15 15 16 16 16 17 17 17 17 18 18 18 18 18 19 19 19 19 20 20 21 21 22 22 22 23 23
15 15 15 13 11 10 8 8 7 7 7 8 9 9 9 9 10 10 11 11 11 12 12 13 14 14 15 16 17 17 17 16 16 15 15 14 13 13 13 14 15 16 17 18 18 17 17 17 16 16 16 16 16 15 15 15 15 15 15 15 16 16 16 17 17 17 18 18 18 18 18 18 19 19 19 20 20 20 21 21 22 22 22 23 23 23
16 15 14 12 11 9 8 7 7 7 7 8 8 9 9 10 10 10 11 11 12 12 13 13 14 14 15 15 16 17 16 16 15 14 14 13 12 13 14 15 16 17 17 17 17 16 16 16 16 16 15 15 15 15 14 14 15 15 16 16 16 17 17 17 17 17 17 18 18 18 18 19 19 20 20 20 21 21 21 22 22 22 23 23 23 23
17 15 13 12 11 9 8 8 8 8 8 8 8 8 9 10 10 10 11 11 12 13 13 14 14 14 14 15 16 17 16 15 14 13 13 12 13 13 15 16 17 17 17 16 15 15 15 15 14 14 14 14 14 14 14 15 15 16 16 16 17 17 17 17 17 17 17 17 18 18 19 19 20 20 20 21 21 21 22 22 22 22 23 23 23 23
19 17 14 13 12 10 9 8 8 8 7 7 7 7 9 10 11 11 11 11 12 13 13 14 14 15 15 16 16 16 16 14 13 12 12 13 14 16 17 18 18 17 16 15 14 14 14 13 13 13 13 13 14 14 14 15 15 16 16 16 16 16 16 16 16 17 17 18 18 19 19 20 20 21 21 21 21 22 22 22 22 22 22 23 23 23
20 18 16 14 12 10 8 6 5 6 6 5 6 7 9 10 12 13 13 13 13 13 14 15 16 17 17 17 17 16 15 13 12 11 12 14 16 18 19 19 18 17 16 15 14 14 13 13 13 13 13 13 13 14 14 15 15 15 15 15 15 15 15 16 16 17 18 18 19 19 20 20 20 21 21 21 21 21 22 22 22 22 22 22 23 23
17 17 16 14 11 9 7 5 3 3 4 5 6 7 7 9 11 13 14 15 15 16 16 17 17 18 19 18 17 15 14 13 12 13 13 15 17 19 19 18 17 16 16 15 14 14 14 14 14 14 14 14 15 15 15 15 15 15 14 14 14 15 16 17 17 18 18 19 19 20 20 20 20 20 20 20 21 21 21 21 21 22 22 22 22 23
15 14 13 11 10 7 6 4 3 3 4 4 4 4 6 8 9 11 13 15 16 18 18 19 19 18 18 17 16 14 14 14 15 16 17 19 20 20 20 19 18 16 16 16 15 15 15 16 16 16 16 16 16 16 16 16 15 15 14 15 15 16 17 18 18 19 19 19 19 19 20 20 20 20 20 20 20 20 21 21 21 22 22 22 23 23
14 12 11 9 8 6 5 3 2 2 1 1 2 4 7 9 10 11 12 13 15 16 18 20 20 19 17 15 14 13 13 14 17 19 21 22 23 23 22 21 20 19 18 18 17 17 17 18 18 18 18 18 18 18 17 16 16 15 16 16 17 18 18 19 19 19 19 19 19 19 19 19 19 20 20 20 20 20 21 21 21 22 22 23 23 24
12 11 10 8 7 6 5 4 3 3 2 2 3 5 6 9 10 12 13 14 14 16 17 19 20 19 16 14 12 12 13 15 18 21 24 24 24 23 23 22 21 20 20 20 20 19 19 20 20 20 20 19 19 19 18 17 17 17 17 18 18 19 19 19 19 19 19 19 19 19 19 19 19 19 20 20 20 21 21 22 22 22 23 23 24 24
11 10 10 8 7 6 5 4 4 3 3 3 4 5 6 8 10 11 13 13 15 16 18 19 20 18 15 12 12 12 13 15 19 23 26 26 25 23 23 22 22 21 21 22 22 22 21 22 22 22 22 21 21 20 19 18 18 18 18 19 19 19 19 19 19 19 19 19 19 19 19 19 19 20 20 20 21 21 22 22 23 23 23 24 24 25
11 11 11 9 8 6 5 4 3 3 2 3 4 6 7 8 10 11 12 13 14 16 16 17 17 16 13 12 12 12 13 15 19 22 26 27 25 23 22 22 22 22 22 23 23 24 24 23 23 23 24 23 22 20 19 18 18 18 18 19 19 19 18 18 18 18 18 18 19 19 19 19 20 20 20 21 21 22 22 23 23 24 24 24 24 25
11 10 10 10 8 6 5 3 2 2 2 3 5 6 7 8 9 11 11 13 14 14 13 13 11 10 10 13 13 12 15 18 20 22 24 26 25 23 21 21 21 22 23 24 24 25 25 25 25 25 24 23 22 20 19 18 18 18 18 18 18 18 18 18 18 18 18 19 19 19 20 20 20 21 21 22 22 22 23 23 23 24 24 24 24 25
10 9 9 8 7 5 4 2 1 1 2 4 5 7 8 9 10 11 11 12 12 11 11 11 9 9 9 11 11 12 17 20 21 21 22 23 24 23 21 20 20 22 24 24 25 25 25 25 25 25 25 23 21 20 19 18 17 17 18 18 18 18 18 18 18 19 19 19 20 20 20 21 21 21 22 22 22 23 23 23 24 24 24 25 25 25
8 7 6 6 5 4 2 2 1 2 4 5 6 8 9 10 11 11 11 11 10 9 10 10 10 11 11 13 14 16 19 21 21 21 20 21 22 22 20 19 20 21 24 24 25 25 25 25 25 25 24 23 21 19 18 17 17 17 17 17 17 18 18 19 19 19 19 20 20 21 21 21 22 22 22 23 23 23 23 24 24 24 25 25 25 25
6 5 4 3 2 2 2 2 2 3 4 6 7 9 10 11 11 11 10 9 9 9 10 10 11 12 13 14 16 19 21 21 21 19 18 19 20 20 18 18 19 22 23 24 24 24 25 25 26 25 24 22 20 18 17 16 16 16 17 17 18 18 19 19 19 20 20 21 21 22 22 22 22 22 23 23 23 23 24 24 24 25 25 25 25 26
5 4 3 3 3 3 3 4 4 5 5 6 8 9 10 11 10 9 9 9 9 10 10 11 11 12 13 15 17 20 22 20 19 17 16 17 18 18 17 17 19 22 23 24 24 24 25 25 26 25 24 21 19 17 16 16 16 16 17 18 18 19 19 20 20 21 21 22 22 22 22 23 23 23 23 23 23 24 24 24 25 25 25 25 26 26
4 4 4 4 4 4 4 5 5 5 6 7 7 9 10 10 10 9 10 10 10 10 10 11 13 14 16 18 20 21 20 17 15 15 15 14 16 17 17 18 20 21 22 23 24 24 25 26 26 25 22 20 18 16 15 15 16 17 18 18 19 19 20 20 21 21 22 22 22 23 23 23 23 23 23 23 24 24 24 24 25 25 25 25 26 26
5 5 5 5 5 5 5 5 5 5 6 6 7 8 9 9 10 10 10 11 11 11 12 14 16 18 19 20 20 19 16 13 12 12 12 10 13 16 17 19 20 20 21 22 23 24 25 26 25 24 21 19 17 15 15 16 17 18 18 19 19 20 21 21 22 22 22 22 23 23 23 23 23 23 24 24 24 24 25 25 25 25 25 26 26 26
5 5 5 5 5 5 5 5 5 6 6 6 7 8 9 9 10 11 11 11 12 13 15 17 19 19 19 18 17 14 12 11 11 11 9 9 12 16 18 19 19 20 20 22 22 23 25 25 25 23 20 18 16 16 16 17 18 19 19 20 20 21 21 22 22 22 23 23 23 23 23 23 23 24 24 24 24 24 25 25 25 25 25 26 26 26
5 5 5 5 5 5 5 5 5 5 6 6 7 8 9 10 10 11 11 12 12 13 15 16 17 16 16 14 13 12 12 12 11 10 9 9 12 16 19 19 18 19 20 22 23 23 24 24 24 22 20 17 16 16 18 19 20 20 20 21 21 22 22 22 23 23 23 23 23 23 23 24 24 24 24 24 25 25 25 25 25 25 26 26 26 27
4 4 4 4 4 3 3 3 3 3 4 5 7 8 9 10 10 11 11 12 12 13 14 14 13 13 13 12 12 12 13 12 11 9 9 9 12 16 18 18 18 18 20 22 23 23 23 23 23 21 19 17 16 17 19 21 21 21 22 22 22 22 23 23 23 23 23 23 23 23 24 24 24 24 24 25 25 25 25 25 26 26 26 27 27 26
2 2 1 1 1 2 2 3 3 3 3 3 5 7 9 10 10 10 10 10 11 11 11 10 10 11 11 11 12 14 15 12 9 8 9 11 13 15 16 17 18 19 20 21 22 22 21 21 21 20 18 16 17 19 21 23 23 23 23 23 23 23 23 23 23 23 23 23 24 24 24 24 24 24 24 25 25 25 25 25 26 26 26 26 25 24
3 3 3 3 4 4 5 5 5 4 3 2 3 5 8 9 9 9 8 9 9 9 9 8 8 8 9 10 13 15 15 10 6 7 10 13 13 13 15 17 18 18 19 21 21 21 19 18 18 17 16 16 18 21 23 25 25 25 24 24 24 24 23 24 24 24 24 24 24 24 24 24 24 24 25 25 25 25 25 26 26 26 26 25 24 23
4 4 4 5 6 6 7 7 7 5 4 3 3 5 8 9 8 8 8 8 9 8 9 9 8 8 9 11 14 15 12 7 5 8 12 14 13 13 15 16 17 18 19 20 21 20 17 15 14 14 15 17 19 22 25 26 26 26 25 25 25 24 24 24 24 24 24 24 25 25 25 24 25 25 25 25 25 25 25 26 26 26 25 24 23 23
4 4 4 4 5 6 6 6 5 5 4 4 4 6 7 8 7 7 7 7 7 8 9 9 9 9 10 11 12 10 7 5 7 11 15 14 13 14 16 16 17 18 18 18 17 15 15 15 13 13 15 18 21 23 25 25 26 26 26 26 25 25 25 25 25 25 25 25 25 25 25 25 25 25 25 25 25 26 26 26 25 25 24 24 23 23
3 3 2 3 3 3 3 3 3 3 3 4 4 5 5 5 5 5 6 6 7 8 9 10 10 10 9 8 6 4 4 7 11 14 15 13 13 14 16 16 17 17 17 15 11 8 10 14 15 16 17 19 22 23 24 24 24 25 25 25 26 26 26 26 25 25 25 25 25 25 25 25 25 25 26 26 26 26 26 25 25 24 24 24 24 24
2 1 1 1 2 2 2 2 2 2 2 2 2 2 3 3 4 5 5 6 7 8 9 11 11 11 10 8 6 5 8 13 15 15 15 13 13 15 15 15 16 17 16 14 12 8 6 11 17 21 21 21 21 22 23 23 23 23 23 24 25 26 27 26 26 26 26 26 25 25 25 25 26 26 26 26 26 26 25 25 24 24 24 24 24 24
1 0 0 1 1 1 2 2 2 2 2 2 1 1 1 2 3 4 6 6 7 9 10 11 12 12 11 11 10 11 14 16 16 15 14 13 13 14 15 16 16 17 17 16 15 13 11 14 18 22 23 22 21 21 22 22 22 22 22 24 25 27 27 27 27 26 26 26 26 26 27 27 27 27 27 27 26 26 25 25 24 24 24 24 25 25
0 0 0 1 1 2 2 3 3 2 2 1 1 1 1 2 3 4 6 7 8 9 10 11 12 13 12 12 12 14 16 18 17 15 15 14 14 14 16 16 17 17 17 16 16 16 16 17 19 21 22 22 22 21 21 21 21 21 22 23 25 27 28 27 27 27 27 27 27 27 28 28 28 28 28 27 27 26 26 26 26 25 25 25 25 25
1 1 1 2 2 3 3 3 3 2 2 1 1 2 2 3 4 5 6 7 8 8 9 10 11 12 13 13 13 15 17 18 17 15 15 16 16 16 16 16 16 17 17 17 16 16 16 18 19 20 20 22 22 21 20 20 21 22 23 23 25 26 27 27 27 26 27 27 27 27 27 28 28 28 28 28 27 27 27 27 27 27 26 25 24 24
1 2 2 3 3 4 4 4 4 3 2 2 2 2 3 4 5 6 6 7 8 8 9 10 10 11 12 13 15 17 19 19 17 16 16 17 18 17 16 16 17 18 17 17 17 17 17 18 20 20 20 20 20 21 22 21 22 22 23 24 24 25 25 25 25 25 26 26 26 26 26 26 27 27 28 28 28 28 28 28 28 27 26 25 24 24
2 3 3 3 4 5 5 5 5 4 4 4 3 3 4 5 6 6 7 7 8 8 8 9 10 11 12 13 15 17 19 19 17 16 15 16 17 18 18 18 19 19 18 18 18 19 19 19 19 20 19 18 18 19 22 24 24 23 23 24 24 24 25 24 24 24 24 24 25 25 25 25 26 26 28 28 28 29 29 29 28 27 26 26 26 26
4 4 4 4 4 5 5 5 5 5 5 5 5 6 6 6 7 7 8 8 8 8 8 9 9 10 11 12 14 15 16 16 16 15 15 15 16 18 19 20 20 20 20 19 19 19 19 18 17 17 18 19 20 21 23 24 24 24 24 24 24 24 23 23 23 23 24 24 24 24 24 24 25 26 28 28 28 29 29 28 28 28 27 27 28 28
5 5 5 5 4 5 5 5 6 6 6 6 7 7 7 8 8 8 8 8 8 8 9 9 10 11 11 12 12 12 13 13 13 14 14 14 15 16 19 20 21 21 21 21 20 20 19 18 17 16 17 19 21 23 24 23 23 24 25 25 24 23 23 23 23 23 24 24 24 24 25 25 25 26 26 27 27 27 27 28 28 28 28 28 29 29
6 6 6 5 5 5 5 6 6 6 7 7 7 7 8 8 8 8 8 8 8 8 9 10 11 12 12 11 11 11 11 12 12 13 14 14 15 16 18 20 21 22 22 22 21 20 19 19 19 20 20 20 21 23 23 23 23 24 24 23 23 23 24 24 24 24 23 23 23 23 24 25 25 25 25 26 26 26 27 27 28 28 27 27 27 28
8 7 7 6 5 5 5 5 6 7 7 7 7 7 7 8 8 9 9 9 9 10 11 12 13 14 13 12 12 11 12 12 13 13 14 14 15 15 17 19 21 22 23 23 22 21 20 20 21 21 21 22 22 23 24 24 24 23 23 22 22 24 25 24 23 23 22 23 23 23 24 24 24 24 25 26 26 27 27 27 28 28 27 26 25 25
8 8 8 7 6 6 5 5 6 6 6 6 6 6 7 8 10 11 12 13 13 14 14 15 16 17 17 16 14 14 13 13 13 13 14 14 15 16 17 18 20 22 23 23 22 21 21 20 21 21 21 22 22 22 23 24 24 23 22 22 23 25 25 24 22 22 22 23 24 24 24 24 24 25 26 27 27 28 27 27 27 27 26 26 25 25
9 9 8 8 7 6 6 5 5 5 5 5 5 5 7 8 10 12 13 14 15 16 16 17 17 17 16 16 16 16 15 15 14 14 14 15 15 16 17 18 20 21 22 22 22 22 22 21 20 20 21 22 22 22 23 24 24 23 22 22 22 22 20 22 24 24 24 24 24 24 24 24 25 26 27 27 28 28 28 27 27 26 26 26 26 26
10 10 9 9 8 7 6 5 5 5 5 5 5 6 7 8 10 11 13 14 15 16 16 16 16 15 15 15 16 16 17 16 15 15 15 15 16 16 18 19 20 21 21 22 22 22 23 22 21 21 22 21 21 22 23 23 23 23 23 22 21 20 20 22 24 26 25 25 25 25 24 25 26 27 27 28 28 27 27 27 27 27 27 27 27 27
10 10 10 10 9 7 6 5 5 5 5 5 5 6 7 8 9 11 12 13 14 15 15 16 15 14 14 14 15 16 17 17 17 16 16 16 16 17 18 19 20 20 21 22 22 22 22 22 23 23 23 22 21 21 22 22 23 23 23 22 21 21 22 24 24 25 25 26 25 25 26 26 27 27 27 27 27 27 26 26 27 27 28 28 27 28
10 10 10 10 9 7 6 5 5 5 5 5 6 6 7 9 10 11 12 13 14 14 14 14 14 13 13 14 15 16 17 17 18 18 18 18 18 18 18 19 20 21 21 22 22 22 22 23 24 24 24 22 21 21 21 21 21 22 22 22 22 22 23 24 24 24 24 25 26 26 27 27 27 26 26 26 27 27 26 26 26 26 28 28 28 28
10 10 11 11 10 8 7 6 6 6 6 7 7 7 8 10 11 12 12 13 13 14 14 13 13 12 13 14 15 16 17 17 18 19 20 20 20 20 20 20 21 21 21 21 22 22 22 23 23 24 23 22 21 21 22 22 21 21 22 23 23 23 23 24 24 25 25 25 26 27 28 28 26 26 26 26 27 27 26 26 26 26 27 27 28 28
10 11 11 11 11 9 8 7 7 8 9 9 9 9 9 10 12 13 14 13 13 13 13 13 13 13 13 14 14 15 16 16 18 19 20 20 21 21 21 22 22 22 21 21 20 20 20 21 21 21 22 21 21 21 22 23 22 22 22 23 23 23 23 24 25 25 25 25 26 27 27 25 25 25 26 26 27 27 26 26 26 26 26 26 26 27
10 11 11 11 11 10 10 9 9 10 10 11 12 12 11 11 12 13 14 14 14 13 13 13 13 13 13 14 14 15 15 16 17 18 19 20 20 21 22 22 23 23 23 22 21 20 19 18 17 17 17 18 20 21 22 22 22 22 22 22 22 22 23 24 24 25 25 25 26 27 26 25 24 24 25 25 26 27 27 27 26 26 26 26 26 26
10 10 10 10 10 10 10 9 10 10 11 11 12 13 14 14 14 14 14 14 14 14 13 13 13 13 14 14 14 15 15 16 17 18 18 19 20 20 21 22 22 23 24 23 23 22 20 19 17 14 12 12 13 16 18 20 21 21 21 21 21 21 21 22 24 24 24 25 25 26 27 26 25 24 24 24 25 26 27 26 26 25 25 25 26 26
11 11 10 10 10 9 9 9 9 9 10 10 11 12 13 15 15 15 15 15 15 14 13 13 13 13 13 14 14 15 15 16 16 17 18 19 20 20 19 20 21 21 22 22 22 22 21 19 16 14 13 10 8 9 12 16 19 20 20 20 20 20 21 22 23 24 25 25 25 26 26 25 24 23 23 23 24 25 25 26 26 26 26 26 26 27
Wind_Direction
165 167 168 170 170 170 169 174 179 184 191 203 215 227 241 256 267 276 283 288 291 294 295 295 296 296 296 296 296 296 298 299 302 304 306 308 309 309 308 306 305 304 303 301 300 298 297 298 298 297 296 296 296 296 297 298 298 298 298 299 299 299 299 299 299 298 298 298 297 297 297 297 297 297 297 297 297 297 297 297 297 297 297 298 298 298
159 161 163 167 169 168 166 171 177 183 192 205 222 239 252 264 272 278 283 285 288 290 291 293 295 296 297 298 298 299 300 302 303 305 306 308 308 307 306 304 303 303 302 300 299 299 298 299 298 298 297 297 296 296 296 297 298 298 298 299 299 299 299 299 298 297 297 297 297 296 296 296 296 297 297 297 297 297 296 296 296 297 297 298 298 298
153 156 160 166 170 171 169 173 179 184 192 205 225 243 256 265 270 273 277 280 284 288 290 293 296 298 299 299 300 301 302 304 305 306 307 307 307 305 304 303 302 303 302 300 300 301 300 299 299 299 298 298 298 298 297 298 298 298 299 299 300 299 299 298 297 296 296 296 296 296 296 296 296 297 297 296 296 296 296 296 296 297 297 298 298 298
152 155 160 165 170 174 175 179 185 193 203 217 233 247 256 261 265 268 273 278 282 286 290 294 297 299 299 300 301 302 304 306 307 307 307 306 305 304 303 302 302 303 302 302 302 302 301 300 299 299 299 299 299 298 298 298 298 299 300 299 299 298 297 297 296 296 296 295 296 296 296 297 296 296 296 296 296 296 296 296 296 297 297 297 298 298
156 159 163 167 171 177 184 190 197 208 219 229 238 246 252 257 262 268 274 278 281 284 289 293 296 298 299 301 303 304 306 307 308 307 307 305 304 303 302 303 304 305 305 305 304 303 301 300 299 299 299 298 298 298 298 298 299 300 300 299 299 298 297 296 296 296 296 295 296 296 297 297 296 296 296 295 295 295 295 296 296 296 296 297 297 297
161 164 168 172 175 180 189 199 208 217 225 231 238 244 251 258 265 271 275 279 282 285 289 293 296 298 300 303 306 307 308 309 309 308 307 305 304 303 303 305 307 309 309 307 306 303 302 300 299 299 298 298 298 298 299 300 301 301 301 299 298 297 297 295 295 295 295 296 296 297 297 296 296 296 295 295 295 294 295 295 295 295 296 296 296 296
162 166 171 175 179 184 191 199 207 213 218 226 236 247 255 263 269 274 279 283 287 290 292 293 295 298 302 306 309 310 310 310 310 309 307 305 304 305 307 310 313 313 312 310 307 304 302 301 299 299 298 298 299 299 300 302 303 302 300 299 297 296 296 295 295 295 295 296 297 297 297 296 296 295 295 294 294 294 294 294 295 295 295 295 295 295
158 164 171 175 180 187 196 203 211 217 224 233 244 254 262 270 274 278 284 289 292 295 296 296 296 298 303 309 312 313 313 313 312 311 309 308 309 311 314 317 318 318 315 312 308 305 303 301 300 300 300 300 301 301 301 303 302 300 298 296 295 295 295 296 296 297 297 297 297 296 296 296 296 295 295 294 294 294 294 294 294 294 294 295 295 295
157 160 169 175 178 182 193 208 220 229 237 249 261 272 281 288 291 290 291 295 299 302 304 304 304 304 307 312 315 317 317 317 316 315 315 316 318 320 322 323 323 321 318 314 311 308 306 305 304 303 303 303 303 302 302 301 299 298 296 295 295 295 297 298 299 299 298 297 297 297 297 296 296 295 295 294 294 294 294 294 294 294 294 294 295 295
161 163 166 173 180 184 186 195 219 241 256 273 285 290 296 305 309 309 308 307 308 311 313 315 316 315 315 316 318 320 321 321 321 321 321 322 324 325 326 327 326 324 320 317 314 312 311 311 311 311 311 309 308 307 305 303 301 300 299 298 299 300 301 302 302 300 299 298 298 298 298 297 297 297 296 295 295 295 295 294 295 295 295 295 295 295
160 164 165 166 174 185 190 191 208 252 279 295 298 297 301 310 319 325 328 325 321 320 321 322 323 324 324 325 324 323 325 326 326 325 324 324 325 326 327 328 327 325 322 319 317 316 316 317 319 319 318 317 315 314 313 311 309 307 306 306 306 306 306 306 304 303 302 301 300 300 299 298 298 298 298 297 296 296 296 296 296 296 296 296 295 295
156 161 162 163 166 174 184 197 220 253 278 290 299 316 331 328 329 333 336 333 329 327 326 325 325 328 330 332 332 330 330 330 330 329 327 327 327 328 329 329 328 326 322 320 319 320 321 323 324 325 324 322 321 320 319 317 316 315 314 313 312 311 309 308 306 305 305 304 303 302 301 300 299 299 299 298 298 297 297 297 297 297 296 296 296 296
158 160 159 159 160 161 161 167 181 211 259 297 342 356 351 340 334 333 334 333 332 331 329 328 328 331 334 336 337 336 336 333 331 329 328 328 330 331 331 331 330 329 325 323 323 325 327 327 328 328 326 325 324 324 323 323 322 321 319 316 313 311 310 309 308 307 306 305 305 304 303 302 301 300 299 299 298 297 297 297 297 297 297 297 297 296
153 156 153 148 145 144 146 145 132 108 68 30 4 346 337 333 331 332 334 334 334 334 333 330 332 335 339 341 341 339 336 333 331 329 328 328 330 332 331 329 329 328 327 325 326 328 330 330 330 329 329 327 327 327 328 327 326 323 319 315 313 312 311 310 309 308 307 307 306 305 304 303 302 301 300 300 299 299 299 299 299 298 298 297 297 296
147 146 140 134 129 128 129 130 117 95 64 23 353 337 332 332 334 336 336 335 336 337 336 334 335 338 340 342 341 338 334 332 331 330 328 327 328 330 330 327 326 326 326 325 326 329 332 332 331 331 330 330 330 330 330 327 324 319 316 314 313 312 311 311 310 309 308 308 307 306 305 305 304 303 302 302 301 301 300 300 299 299 298 297 297 296
149 146 137 134 130 125 122 117 103 80 49 8 348 342 339 339 339 340 340 337 339 341 342 342 341 339 337 337 337 335 332 331 332 331 327 324 325 329 329 326 324 325 325 325 326 329 332 333 332 332 332 331 332 331 328 324 320 317 315 314 313 313 312 311 311 310 309 309 308 308 307 306 306 305 304 303 303 302 301 300 300 299 298 298 297 296
143 141 137 132 127 122 122 115 100 62 20 359 351 345 340 339 340 342 343 342 343 343 344 344 340 332 325 326 328 331 330 331 331 328 323 318 320 325 328 325 323 323 324 324 326 329 332 332 332 332 331 331 330 328 325 322 320 318 316 315 314 313 312 312 311 311 311 310 310 309 309 308 307 307 305 305 304 303 302 302 301 300 299 298 297 296
135 136 136 129 125 123 125 117 88 15 0 356 349 344 341 340 341 343 343 343 342 339 335 330 322 313 310 313 318 323 326 326 326 324 319 314 315 321 326 325 322 322 322 323 325 329 331 332 331 331 330 329 328 326 325 323 321 319 317 315 314 314 314 313 313 313 313 312 312 311 310 310 309 308 307 306 305 304 304 303 302 301 300 299 298 297
134 137 137 134 132 132 130 115 60 23 8 357 346 338 334 336 339 341 341 339 334 327 319 313 307 302 301 301 306 313 320 321 321 320 315 309 311 317 324 324 322 321 320 321 325 328 331 331 331 330 330 329 329 328 327 324 322 319 317 316 316 316 315 315 315 314 314 314 313 313 312 311 310 309 308 307 307 306 305 304 303 302 301 300 299 298
132 131 124 115 102 90 75 42 25 17 7 354 343 336 334 334 336 337 335 329 321 313 308 303 299 298 299 300 305 311 316 319 319 316 311 306 307 312 321 323 322 321 320 320 324 329 329 329 330 330 331 331 331 330 327 324 322 320 319 319 318 317 317 316 316 316 315 315 314 314 313 312 311 311 310 309 308 307 306 305 304 303 302 301 300 299
114 106 89 72 58 48 39 23 16 12 2 352 342 336 333 332 330 327 323 317 312 307 305 300 297 297 300 301 303 309 316 318 317 314 308 304 305 310 319 322 323 322 320 321 325 328 328 327 328 330 331 332 332 330 327 324 323 322 321 320 319 318 318 317 317 317 316 316 315 314 314 313 312 312 311 310 309 308 307 306 305 304 303 301 300 299
84 77 57 49 44 38 29 20 15 8 357 348 340 334 330 325 320 315 313 311 308 305 302 297 295 295 297 297 300 307 315 316 314 311 307 303 302 308 319 323 324 323 320 321 324 327 326 326 327 330 332 333 331 329 327 326 325 324 322 320 319 319 319 318 318 317 317 316 315 315 314 314 313 312 312 311 310 309 308 307 306 304 303 302 301 300
62 58 48 43 38 32 23 16 7 358 350 344 337 330 323 316 311 308 308 307 305 301 298 295 293 293 295 297 302 309 314 315 313 310 307 298 299 308 319 324 326 323 319 320 323 324 324 324 326 329 332 332 332 331 330 328 326 325 323 320 320 319 319 319 318 317 317 316 316 315 314 314 313 313 312 311 310 310 308 307 306 305 304 303 302 301
49 46 42 36 29 19 8 1 355 351 347 341 333 323 313 308 305 304 303 302 298 296 294 294 296 298 300 304 308 313 316 317 314 311 306 295 297 307 318 324 325 322 318 319 321 322 322 322 325 329 332 333 332 332 331 330 327 325 322 321 319 319 319 318 318 317 317 316 316 315 315 314 313 313 312 311 311 309 308 307 306 305 305 304 303 302
35 32 28 23 16 8 360 353 348 344 341 336 327 316 307 301 298 297 297 295 293 293 295 300 304 307 308 311 314 316 319 322 320 314 308 299 301 309 318 324 325 321 317 319 321 321 320 320 323 328 332 334 333 333 332 330 327 324 322 321 320 319 318 318 317 317 317 317 316 316 315 314 314 313 312 311 310 309 308 307 306 306 305 305 304 303
21 22 20 18 11 0 347 337 330 331 335 335 325 313 302 296 295 295 295 294 296 300 307 313 314 313 314 316 316 317 322 326 326 320 312 307 308 312 318 325 326 322 318 319 321 321 319 318 320 325 331 334 334 333 332 330 326 323 322 321 320 320 319 318 318 317 317 317 316 316 315 314 313 313 312 311 310 309 308 308 307 307 306 306 305 304
0 2 359 341 321 300 286 283 288 301 322 335 327 311 297 294 298 302 303 305 309 316 323 325 320 316 319 320 318 319 325 330 330 323 319 315 313 314 319 325 326 323 320 319 319 319 317 315 317 322 328 332 332 331 329 328 326 323 322 321 321 321 321 320 319 318 318 317 316 315 315 314 313 312 311 311 310 309 309 308 308 308 308 308 306 305
312 291 279 274 275 277 279 279 278 280 291 315 317 304 293 296 305 313 315 317 322 327 329 325 322 320 320 319 316 319 327 333 335 329 326 323 319 316 319 325 327 325 322 319 318 318 316 314 316 321 327 329 328 327 327 326 325 324 324 324 324 323 322 322 321 320 318 317 316 315 314 314 313 312 311 311 310 310 309 309 309 310 309 308 307 305
324 309 294 285 284 286 288 288 284 277 269 285 299 295 292 298 308 317 318 322 327 329 325 324 323 321 318 317 317 319 326 336 348 342 334 330 323 317 320 325 327 327 326 323 322 321 319 318 319 323 325 325 324 323 324 325 325 325 325 326 325 324 323 323 322 320 318 317 316 315 314 313 313 312 311 311 311 310 310 311 311 311 310 309 307 305
339 327 310 298 294 296 298 300 296 283 267 267 275 282 289 300 309 318 321 327 329 325 321 320 321 321 321 323 323 323 323 336 344 341 336 331 323 319 322 323 325 326 329 328 327 325 322 321 322 324 324 323 321 321 321 322 324 324 325 325 324 324 323 322 321 319 317 316 315 315 314 313 313 312 312 311 311 311 311 312 312 312 311 309 307 306
344 329 312 307 305 304 307 312 311 300 283 273 273 280 292 305 316 325 330 332 329 323 320 317 316 317 319 324 327 321 306 316 329 335 332 326 318 315 319 320 320 323 327 329 328 324 320 320 321 322 322 321 319 319 319 320 321 322 322 322 321 321 321 320 319 317 316 316 315 315 314 314 313 313 312 312 312 312 312 312 313 313 311 310 308 307
353 336 317 318 318 315 321 323 326 321 312 300 293 293 305 318 328 331 332 329 325 321 318 315 312 310 307 303 294 284 287 301 317 328 326 318 312 311 314 315 316 317 320 319 313 305 304 312 314 316 318 318 317 317 318 318 319 320 320 320 318 318 318 318 318 316 316 316 316 316 315 315 314 314 314 313 313 312 312 312 313 313 312 311 309 307
26 72 37 1 346 339 336 329 327 327 328 330 332 334 332 331 330 329 326 324 321 318 315 312 308 304 299 292 287 284 287 297 311 322 321 314 309 309 311 312 313 313 315 313 307 299 292 297 306 312 315 316 316 316 317 317 318 319 319 317 316 315 316 317 317 316 316 315 316 316 316 316 316 316 316 315 314 313 312 312 313 312 312 311 309 308
102 102 53 16 1 353 344 336 332 330 333 344 358 358 344 335 328 325 321 319 316 313 312 310 306 300 295 292 290 289 291 300 313 322 318 312 308 307 308 309 310 311 312 311 309 304 298 297 303 309 313 314 315 316 316 317 318 318 318 316 314 314 315 316 316 316 316 315 315 315 316 317 317 317 317 316 315 314 314 313 312 312 311 310 308 307
63 41 16 1 354 350 347 342 341 344 353 7 7 352 338 330 325 323 321 318 315 312 310 309 306 301 295 290 288 289 292 304 316 322 317 311 306 304 305 305 306 308 308 308 309 308 305 303 305 309 311 313 314 315 316 317 317 317 316 314 313 313 313 315 315 315 315 315 314 314 315 316 317 316 316 316 315 314 313 312 311 311 310 308 307 305
29 23 13 359 350 348 348 348 350 355 5 9 359 342 330 326 324 323 322 320 318 316 314 312 310 307 301 294 288 288 293 305 315 319 316 310 305 301 299 299 302 304 304 304 305 306 306 306 307 309 310 311 313 315 316 318 318 317 315 314 314 313 313 314 315 315 314 313 313 313 314 315 314 314 314 314 313 313 312 311 311 310 310 308 306 303
357 359 0 355 348 346 347 350 353 355 356 354 347 336 329 327 325 324 323 323 322 322 320 318 316 314 311 305 299 297 300 307 313 316 315 312 306 300 293 294 298 300 299 299 300 303 305 305 307 309 310 309 310 312 315 317 318 317 316 315 314 313 313 314 314 314 313 311 311 311 312 313 312 312 312 312 312 312 312 311 311 310 310 308 306 304
341 344 349 347 342 337 338 341 345 347 344 341 338 334 332 329 327 325 325 326 327 329 329 328 326 323 320 315 311 308 308 310 314 316 316 314 309 302 294 293 295 298 297 294 294 297 300 302 305 308 308 308 308 309 311 314 315 315 315 315 314 313 313 314 314 314 312 311 311 311 311 311 311 310 311 311 312 312 311 311 311 311 310 309 308 306
336 339 341 340 334 328 327 330 335 337 336 335 334 333 331 328 325 324 325 328 332 336 339 338 335 331 326 322 319 317 317 317 319 321 321 319 314 307 301 295 295 297 299 296 293 292 292 294 296 300 303 305 307 308 309 311 312 313 314 314 314 314 314 314 314 313 312 311 311 312 311 311 311 310 310 310 310 310 309 309 309 310 310 310 309 308
332 333 335 333 328 324 325 328 330 331 331 331 331 331 329 327 324 323 325 329 335 341 344 343 339 334 331 330 330 330 329 328 328 327 326 323 320 314 308 301 298 298 299 298 295 292 289 289 290 293 295 298 301 304 306 308 309 311 313 314 313 313 314 314 314 313 312 312 311 311 311 311 311 310 309 309 308 308 307 307 307 308 308 308 307 307
326 327 329 326 320 317 317 322 325 326 327 329 332 336 338 338 336 335 334 337 341 347 351 349 344 340 339 342 343 343 340 336 333 330 327 326 323 318 312 307 304 302 300 298 295 292 289 288 289 291 293 294 297 300 301 303 306 308 310 309 308 308 310 311 312 312 313 313 312 311 311 311 310 309 309 308 307 306 306 306 305 306 306 305 304 303
321 323 323 321 317 316 318 320 321 323 327 331 338 348 354 356 354 351 350 350 351 354 355 353 349 343 340 341 344 346 343 339 335 332 330 328 325 321 316 312 309 305 301 297 293 291 290 289 289 289 291 294 296 298 299 301 303 305 305 304 305 307 309 310 312 313 313 312 312 312 311 310 310 309 309 308 307 306 306 305 305 305 304 303 302 300
318 318 317 314 311 312 315 317 321 326 331 338 349 0 6 5 3 0 357 356 355 355 355 353 348 342 337 334 336 338 339 337 336 334 332 330 327 324 320 317 314 310 305 299 295 294 296 293 290 289 291 293 293 294 296 298 301 302 303 303 305 307 309 310 312 313 313 312 311 311 311 310 310 309 308 308 307 306 306 305 305 304 303 303 302 300
315 313 310 307 304 304 307 312 321 331 339 347 357 7 12 10 6 2 358 355 354 354 353 351 347 341 336 332 331 332 333 334 334 334 334 332 330 326 323 320 317 314 310 302 296 295 298 297 294 293 293 292 291 291 293 296 298 300 301 302 303 302 300 303 307 311 312 311 311 311 311 310 310 310 308 307 307 306 306 307 306 305 304 303 302 301
311 308 305 301 298 299 305 318 330 337 341 345 353 3 9 8 4 359 354 352 352 352 353 350 346 341 336 333 331 330 330 331 332 333 334 333 332 329 325 323 319 317 313 307 301 297 295 294 295 296 296 293 290 289 290 292 295 297 299 301 301 300 298 300 304 307 309 310 310 311 311 311 310 310 308 308 307 307 307 307 306 305 305 305 304 302
307 305 302 298 297 300 310 323 331 333 333 336 344 353 1 0 357 354 352 349 348 348 350 350 346 339 333 331 330 330 329 329 330 331 332 332 331 330 328 325 323 320 316 312 307 302 296 293 292 294 296 294 292 289 288 289 291 294 296 300 302 302 303 304 305 306 308 309 309 310 311 312 311 310 308 307 307 307 307 306 305 304 305 305 304 303
311 308 306 304 304 308 317 326 333 335 333 330 332 340 349 351 349 347 347 346 345 343 343 344 341 335 330 329 329 329 328 327 327 328 329 330 330 330 329 328 326 324 320 315 311 306 301 297 295 293 291 290 290 290 289 289 290 291 294 298 302 303 304 305 306 307 308 309 309 310 312 313 312 310 308 307 306 306 305 305 304 303 304 304 303 302
316 314 313 312 314 319 326 335 342 343 339 332 328 332 341 345 344 341 340 341 341 339 337 335 333 330 328 327 328 327 326 325 325 326 327 327 328 329 329 330 329 327 323 319 315 310 306 303 299 295 290 285 284 285 288 290 291 292 295 299 302 303 304 304 306 308 310 310 310 311 312 311 309 308 308 307 306 305 304 304 303 303 304 303 302 301
317 318 319 319 322 327 333 341 347 347 342 335 331 330 335 340 341 339 337 337 337 334 331 328 326 325 323 324 326 327 327 325 325 325 326 327 327 328 329 330 330 329 328 325 322 319 315 311 306 299 292 285 281 281 285 290 294 297 300 302 303 304 305 306 308 310 311 311 311 312 311 309 306 305 306 304 303 303 304 303 303 304 304 304 303 302
318 321 323 325 327 330 335 342 346 345 340 335 330 329 330 334 337 339 338 337 334 330 325 323 321 320 319 320 323 325 326 326 325 325 326 326 327 326 327 329 331 331 331 330 329 328 326 323 318 312 304 294 286 284 288 294 299 303 305 305 306 307 307 308 310 311 312 312 312 312 312 309 307 306 306 304 303 303 303 304 304 304 305 305 305 304
318 323 326 328 329 331 336 341 343 339 334 330 326 325 325 328 332 335 336 335 332 327 323 321 318 316 315 316 319 322 324 324 324 323 324 325 326 325 325 328 331 332 332 332 332 332 331 329 326 323 321 316 306 298 298 302 305 307 308 309 310 312 313 312 312 313 313 313 313 312 312 310 309 309 308 306 304 304 304 305 305 306 307 307 306 305